Regional Weather Roundup
Issued by NWS

Home | Current Version | Previous Version | Graphics & Text | Print | Product List | Glossary Off
Versions: 1 2 3 4 5 6 7 8 9 10 11 12 13 14 15 16 17 18 19 20 21 22 23 24 25 26 27 28 29 30 31 32 33 34 35 36 37 38 39 40 41 42 43 44 45 46 47 48 49 50

000
ASUS43 KMPX 200101
RWRMN
WEATHER ROUNDUP FOR MINNESOTA
NATIONAL WEATHER SERVICE TWIN CITIES/CHANHASSEN MN
800 PM CDT FRI SEP 19 2014


NOTE: "FAIR" INDICATES FEW OR NO CLOUDS BELOW 12,000 FEET WITH NO
SIGNIFICANT WEATHER AND/OR OBSTRUCTIONS TO VISIBILITY. N/A MEANS
CURRENT SKY AND/OR WEATHER CONDITIONS ARE NOT AVAILABLE.

MNZ060>063-068>070-200200-
   Twin Cities Metro

CITY           SKY/WX    TMP DP  RH WIND       PRES   REMARKS
TWIN CITIES    CLOUDY    73  63  70 VRB7      29.67S
ST PAUL        CLOUDY    72  64  76 CALM      29.68R
CRYSTAL        LGT RAIN  70  65  84 SE8       29.63F
BLAINE         LGT RAIN  70  66  88 CALM      29.66S
LAKEVILLE      CLOUDY    73  64  73 CALM      29.68R
EDEN PRAIRIE   CLOUDY    72  65  78 E5        29.65S
SOUTH ST PAUL  CLOUDY    72  63  72 N5        29.67R
LAKE ELMO      CLOUDY    70  64  83 CALM      29.70R
$$
MNZ001>005-007-008-013>017-022>024-027-028-200200-
   Northwest Minnesota

CITY           SKY/WX    TMP DP  RH WIND       PRES   REMARKS
BEMIDJI        PTCLDY    63  61  94 S5        29.59S FOG
HALLOCK        MOCLDY    64  61  88 N17       29.53R
ROSEAU         TSTM      68  63  83 S3        29.50F
WARROAD        TSTM      64  61  88 E8        29.51F
THIEF RVR FALL CLEAR     70  64  83 S10       29.52F
CROOKSTON      CLEAR     70  63  78 S7        29.53R
FOSSTON        PTCLDY    64  63  94 S8        29.57R
DETROIT LAKES  PTCLDY    66  63  88 S7        29.62S
MOORHEAD       MOCLDY    73  70  88 SW9       29.58S
PARK RAPIDS    PTCLDY    64  62  93 S8        29.62S
MAHNOMEN       FAIR      68  64  89 S8        29.57S
$$
MNZ006-009>011-018-025>026-200200-
   North Central Minnesota

CITY           SKY/WX    TMP DP  RH WIND       PRES   REMARKS
BAUDETTE       PTCLDY    64  63  96 SE3       29.53F
FLAG ISLAND    LGT RAIN  61  61 100 CALM      29.52S
INTL FALLS     MOCLDY    63  61  93 VRB5      29.57R
WASKISH        PTCLDY    64  63  94 CALM      29.56F
BIG FORK       CLOUDY    63  61  94 S7        29.61S FOG
LONGVILLE      CLOUDY    63  63 100 CALM      29.64R
GRAND RAPIDS   CLOUDY    63  59  88 SW6       29.64R
CRANE LAKE     CLOUDY    59  57  94 CALM      29.60F FOG
ORR            CLOUDY    61  57  88 S5        29.59S FOG
COOK           CLOUDY    61  61 100 S6        29.63S FOG
WALKER         MOCLDY    63  61  94 S5        29.62R
$$
MNZ012-019>021-037-200200-
   Northeast Minnesota

CITY           SKY/WX    TMP DP  RH WIND       PRES   REMARKS
DULUTH         CLOUDY    64  60  87 W13       29.64S FOG
ELY            CLOUDY    59  57  94 SW6       29.63R FOG
HIBBING        CLOUDY    62  60  93 SW3       29.64R FOG
EVELETH        CLOUDY    59  59 100 SW6       29.65R FOG
DULUTH HARBOR  PTCLDY    63  61  94 SW3       29.63S
TWO HARBORS    CLOUDY    61  55  82 W3        29.62S HAZE
SILVER BAY     PTCLDY    61  61 100 CALM      29.62S FOG
GRAND MARAIS     N/A     53  52  96 CALM      29.62S
G MARAIS ARPRT CLOUDY    57  55  94 SW7       29.65S FOG
$$
MNZ029>031-032-039>041-046>048-054>057-064-200200-
   West Central Minnesota

CITY           SKY/WX    TMP DP  RH WIND       PRES   REMARKS
FERGUS FALLS   CLEAR     66  63  88 S6        29.63R
WHEATON        CLEAR     68  63  83 S7        29.66R
MORRIS         CLEAR     66  64  94 S6        29.65S
ALEXANDRIA     PTCLDY    66  64  93 SW8       29.67S
ELBOW LAKE     FAIR      64  63  97 S6        29.65R
WADENA         CLEAR     63  61  94 S3        29.64R
GLENWOOD       PTCLDY    64  63  94 SW6       29.68R
APPLETON       PTCLDY    70  64  83 CALM      29.66R
BENSON         PTCLDY    66  66 100 SW3       29.67R
ORTONVILLE     PTCLDY    72  63  73 CALM      29.66S
MADISON        MOCLDY    73  66  78 SW6       29.67S
WILLMAR        FAIR      70  64  83 CALM      29.69R
$$
MNZ033>034-036-042>043-049>051-058-059-200200-
   Central Minnesota

CITY           SKY/WX    TMP DP  RH WIND       PRES   REMARKS
ST CLOUD       MOCLDY    66  62  87 CALM      29.65F FOG
SAUK CENTRE    FAIR      65  64  96 S3        29.67R
PAYNESVILLE      N/A     63  64 100 CALM      29.67S FOG
AITKIN         CLOUDY    66  61  82 SW3       29.64R HAZE
PINE RIVER     CLOUDY    64  63  94 S3        29.68S
BRAINERD       CLOUDY    62  62 100 SW6       29.65R FOG
STAPLES        PTCLDY    63  61  94 S3        29.65R FOG
LONG PRAIRIE   FAIR      61  61 100 S5        29.66S FOG
LITTLE FALLS     N/A     63  61  94 CALM      29.66R FOG
LITCHFIELD     MOCLDY    66  66 100 CALM      29.68R
BUFFALO        CLOUDY    67  64  90 CALM      29.67S
MAPLE LAKE     CLOUDY    65  64  96 CALM      29.68R FOG
$$
MNZ037-044-045-052-053-200200-
   East Central Minnesota

CITY           SKY/WX    TMP DP  RH WIND       PRES   REMARKS
PRINCETON      CLOUDY    66  63  88 SE1       29.67S
MORA           MOCLDY    63  61  94 CALM      29.67S
CAMBRIDGE      CLOUDY    66  57  72 CALM      29.65S HAZE
RUSH CITY      CLOUDY    62  60  93 CALM      29.66F
MOOSE LAKE     PTCLDY    61  59  94 SW3       29.63F FOG
HINCKLEY       FOG       61  61 100 S3        29.65F VSB 3/4
CLOQUET        CLOUDY    63  61  94 SW7       29.65S
MCGREGOR       CLOUDY    63  61  94 SW6       29.65S
$$
MNZ071>073-080-081-089-090-097-098-200200-
   Southwest Minnesota

CITY           SKY/WX    TMP DP  RH WIND       PRES   REMARKS
MONTEVIDEO     MOCLDY    73  66  78 CALM      29.68R
GRANITE FALLS  MOCLDY    71  66  87 SW7       29.69R
CANBY          MOCLDY    74  66  75 SW3       29.70R
MARSHALL       MOCLDY    72  66  83 W8        29.69S
REDWOOD FALLS  LGT RAIN  77  67  71 W6        29.68R
OLIVIA         MOCLDY    72  66  83 SW3       29.67S
PIPESTONE      PTCLDY    75  66  73 CALM      29.73S
WINDOM         PTCLDY    77  66  69 SW3       29.71R
WORTHINGTON    PTCLDY    77  64  65 SW8       29.73R
JACKSON        PTCLDY    77  64  65 S8        29.72S
TRACY          PTCLDY    76  68  75 CALM      29.72R
SLAYTON        PTCLDY    76  65  70 W5        29.73R
$$
MNZ065>067-074>077-082>085-091>093-200200-
   South Central Minnesota

CITY           SKY/WX    TMP DP  RH WIND       PRES   REMARKS
MANKATO        CLOUDY    79  63  57 S10       29.68R
NEW ULM        MOCLDY    73  70  88 S6        29.67S
ST JAMES       MOCLDY    79  66  65 S7        29.70R
FAIRMONT       MOCLDY    77  57  50 S15       29.72R
GLENCOE        CLOUDY    76  65  68 CALM      29.66R
FARIBAULT      MOCLDY    81  63  54 S6        29.70R
OWATONNA       PTCLDY    77  64  65 S14       29.71S
WASECA         MOCLDY    77  61  57 S12G18    29.73R
ALBERT LEA     CLOUDY    75  66  73 S12G17    29.75R
$$
MNZ078>079-086>088-094>096-200200-
   Southeast Minnesota

CITY           SKY/WX    TMP DP  RH WIND       PRES   REMARKS
ROCHESTER      PTCLDY    71  62  73 S17G24    29.77F
RED WING       MOCLDY    77  63  61 S9G21     29.67F
STANTON        MOCLDY    77  64  64 S9        29.67S
DODGE CENTER   PTCLDY    73  64  73 S17       29.74S
WINONA         CLOUDY    72  59  64 S5        29.77S
AUSTIN         MOCLDY    72  63  73 S10       29.77S
PRESTON        CLEAR     68  64  85 S12G17    29.81R
$$
ABBREVIATIONS USED IN REMARKS
   TC - TEMPERATURES IN CELSIUS
  WCI - WIND CHILL INDEX
   HX - HEAT INDEX
  VSB - VISIBILITY
$$



USA.gov is the U.S. government's official web portal to all federal, state and local government web resources and services.